TimeCST,TemperatureF,Dew PointF,Humidity,Sea Level PressureIn,VisibilityMPH,Wind Direction,Wind SpeedMPH,Gust SpeedMPH,PrecipitationIn,Events,Conditions,WindDirDegrees,DateUTC
12:15 AM,44.6,37.4,76,30.32,10.0,ENE,5.8,-,N/A,,Overcast,70,2012-12-31 06:15:00
12:35 AM,44.6,35.6,71,30.32,10.0,ENE,5.8,-,N/A,,Overcast,70,2012-12-31 06:35:00
12:55 AM,44.6,35.6,71,30.31,10.0,ENE,4.6,-,N/A,,Overcast,60,2012-12-31 06:55:00
1:15 AM,44.6,35.6,71,30.30,10.0,East,5.8,-,N/A,,Overcast,90,2012-12-31 07:15:00
1:35 AM,44.6,35.6,71,30.29,10.0,East,6.9,-,N/A,,Overcast,80,2012-12-31 07:35:00
1:55 AM,44.6,33.8,66,30.27,10.0,ENE,9.2,-,N/A,,Mostly Cloudy,70,2012-12-31 07:55:00
2:15 AM,44.6,35.6,71,30.28,10.0,East,8.1,-,N/A,,Clear,80,2012-12-31 08:15:00
2:35 AM,44.6,35.6,71,30.27,10.0,ENE,8.1,-,N/A,,Mostly Cloudy,70,2012-12-31 08:35:00
2:55 AM,44.6,35.6,71,30.27,10.0,ENE,5.8,-,N/A,,Mostly Cloudy,70,2012-12-31 08:55:00
3:15 AM,44.6,35.6,71,30.26,10.0,ENE,4.6,-,N/A,,Overcast,70,2012-12-31 09:15:00
3:35 AM,44.6,35.6,71,30.26,10.0,ENE,6.9,-,N/A,,Overcast,70,2012-12-31 09:35:00
3:55 AM,44.6,35.6,71,30.25,10.0,ENE,8.1,-,N/A,,Overcast,70,2012-12-31 09:55:00
4:15 AM,46.4,37.4,71,30.24,10.0,East,8.1,-,N/A,,Overcast,80,2012-12-31 10:15:00
4:35 AM,46.4,39.2,76,30.23,10.0,East,8.1,-,N/A,,Overcast,80,2012-12-31 10:35:00
4:55 AM,46.4,41.0,81,30.22,10.0,East,9.2,16.1,N/A,,Overcast,80,2012-12-31 10:55:00
5:15 AM,46.4,42.8,87,30.22,10.0,East,8.1,-,N/A,,Overcast,80,2012-12-31 11:15:00
5:35 AM,48.2,42.8,82,30.22,10.0,East,10.4,-,N/A,,Overcast,80,2012-12-31 11:35:00
5:55 AM,48.2,42.8,82,30.21,10.0,East,11.5,-,N/A,,Overcast,80,2012-12-31 11:55:00
6:15 AM,48.2,42.8,82,30.20,10.0,East,11.5,16.1,N/A,,Overcast,90,2012-12-31 12:15:00
6:35 AM,48.2,42.8,82,30.21,10.0,East,6.9,-,N/A,,Overcast,90,2012-12-31 12:35:00
6:55 AM,48.2,42.8,82,30.20,10.0,East,8.1,-,N/A,,Overcast,90,2012-12-31 12:55:00
7:15 AM,48.2,42.8,82,30.20,10.0,East,6.9,-,N/A,,Overcast,80,2012-12-31 13:15:00
7:35 AM,50.0,42.8,76,30.21,10.0,East,8.1,-,N/A,,Overcast,90,2012-12-31 13:35:00
7:55 AM,48.2,42.8,82,30.19,10.0,East,9.2,-,N/A,,Overcast,80,2012-12-31 13:55:00
8:15 AM,48.2,42.8,82,30.19,10.0,East,8.1,-,N/A,,Overcast,90,2012-12-31 14:15:00
8:35 AM,50.0,42.8,76,30.20,10.0,East,6.9,-,N/A,,Overcast,90,2012-12-31 14:35:00
8:55 AM,50.0,44.6,82,30.19,10.0,East,9.2,-,N/A,,Overcast,90,2012-12-31 14:55:00
9:15 AM,50.0,44.6,82,30.18,10.0,East,8.1,-,N/A,,Overcast,90,2012-12-31 15:15:00
9:35 AM,51.8,46.4,82,30.19,10.0,East,10.4,-,N/A,,Overcast,100,2012-12-31 15:35:00
9:55 AM,51.8,46.4,82,30.19,10.0,East,10.4,-,N/A,,Overcast,90,2012-12-31 15:55:00
10:15 AM,53.6,48.2,82,30.19,10.0,East,9.2,-,N/A,,Overcast,100,2012-12-31 16:15:00
10:35 AM,53.6,50.0,88,30.18,10.0,East,6.9,-,N/A,,Overcast,100,2012-12-31 16:35:00
10:55 AM,53.6,50.0,88,30.17,10.0,East,9.2,-,N/A,,Overcast,100,2012-12-31 16:55:00
11:15 AM,55.4,50.0,82,30.16,10.0,ESE,8.1,-,N/A,,Overcast,110,2012-12-31 17:15:00
11:35 AM,55.4,50.0,82,30.16,10.0,ESE,8.1,-,N/A,,Overcast,120,2012-12-31 17:35:00
11:55 AM,57.2,50.0,77,30.14,10.0,East,9.2,-,N/A,,Overcast,100,2012-12-31 17:55:00
12:15 PM,59.0,51.8,77,30.11,10.0,East,8.1,-,N/A,,Overcast,100,2012-12-31 18:15:00
12:35 PM,59.0,51.8,77,30.11,10.0,East,6.9,-,N/A,,Overcast,100,2012-12-31 18:35:00
12:55 PM,59.0,51.8,77,30.09,10.0,East,9.2,-,N/A,,Overcast,100,2012-12-31 18:55:00
1:15 PM,59.0,51.8,77,30.09,10.0,East,6.9,-,N/A,,Overcast,100,2012-12-31 19:15:00
1:35 PM,59.0,51.8,77,30.07,10.0,East,9.2,-,N/A,,Overcast,90,2012-12-31 19:35:00
1:55 PM,59.0,53.6,82,30.07,10.0,East,6.9,-,N/A,,Overcast,90,2012-12-31 19:55:00
2:15 PM,59.0,53.6,82,30.07,7.0,East,5.8,-,N/A,,Light Drizzle,80,2012-12-31 20:15:00
2:35 PM,59.0,53.6,82,30.07,5.0,ENE,5.8,-,N/A,,Drizzle,70,2012-12-31 20:35:00
2:55 PM,57.2,55.4,94,30.06,5.0,East,4.6,-,N/A,,Drizzle,80,2012-12-31 20:55:00
3:15 PM,59.0,55.4,88,30.06,10.0,East,6.9,-,N/A,,Overcast,80,2012-12-31 21:15:00
3:35 PM,59.0,55.4,88,30.06,10.0,East,4.6,-,N/A,,Overcast,80,2012-12-31 21:35:00
3:55 PM,59.0,55.4,88,30.06,10.0,East,4.6,-,N/A,,Overcast,90,2012-12-31 21:55:00
4:15 PM,59.0,55.4,88,30.06,7.0,East,5.8,-,N/A,,Overcast,90,2012-12-31 22:15:00
4:35 PM,57.2,55.4,94,30.06,10.0,East,5.8,-,N/A,,Overcast,90,2012-12-31 22:35:00
4:55 PM,57.2,53.6,88,30.05,7.0,East,8.1,-,N/A,,Overcast,100,2012-12-31 22:55:00
5:15 PM,57.2,53.6,88,30.04,10.0,East,9.2,-,N/A,,Overcast,100,2012-12-31 23:15:00
5:35 PM,57.2,53.6,88,30.04,10.0,East,8.1,-,N/A,,Overcast,90,2012-12-31 23:35:00
5:55 PM,55.4,55.4,100,30.04,10.0,East,9.2,-,N/A,,Overcast,100,2012-12-31 23:55:00
6:15 PM,57.2,55.4,94,30.03,10.0,East,6.9,-,N/A,,Overcast,90,2013-01-01 00:15:00
6:35 PM,57.2,55.4,94,30.02,10.0,East,9.2,-,N/A,,Overcast,90,2013-01-01 00:35:00
6:55 PM,57.2,55.4,94,30.02,10.0,East,8.1,-,N/A,,Overcast,90,2013-01-01 00:55:00
7:15 PM,59.0,55.4,88,30.01,10.0,ESE,8.1,-,N/A,,Overcast,110,2013-01-01 01:15:00
7:35 PM,59.0,55.4,88,30.02,10.0,ESE,9.2,-,N/A,,Overcast,110,2013-01-01 01:35:00
8:15 PM,59.0,55.4,88,30.01,7.0,ESE,5.8,-,N/A,,Overcast,110,2013-01-01 02:15:00
8:35 PM,59.0,57.2,94,30.01,7.0,ESE,4.6,-,N/A,,Overcast,120,2013-01-01 02:35:00
8:55 PM,60.8,59.0,94,30.01,7.0,ESE,6.9,-,N/A,,Overcast,120,2013-01-01 02:55:00
9:15 PM,60.8,59.0,94,30.01,5.0,ESE,6.9,-,N/A,,Drizzle,120,2013-01-01 03:15:00
9:35 PM,60.8,59.0,94,30.01,5.0,ESE,6.9,-,N/A,,Light Drizzle,120,2013-01-01 03:35:00
9:55 PM,60.8,60.8,100,30.00,7.0,ESE,8.1,-,N/A,,Overcast,120,2013-01-01 03:55:00
10:15 PM,60.8,60.8,100,29.99,7.0,ESE,8.1,-,N/A,,Overcast,120,2013-01-01 04:15:00
10:35 PM,62.6,60.8,94,29.99,7.0,ESE,10.4,-,N/A,,Overcast,120,2013-01-01 04:35:00
10:55 PM,62.6,62.6,100,29.98,7.0,SE,9.2,16.1,N/A,,Overcast,130,2013-01-01 04:55:00
11:15 PM,62.6,62.6,100,29.98,7.0,SE,10.4,-,N/A,,Overcast,140,2013-01-01 05:15:00
11:35 PM,62.6,60.8,94,29.98,7.0,SE,8.1,-,N/A,,Overcast,140,2013-01-01 05:35:00